Regional Weather Roundup
Issued by NWS Midland/Odessa, TX

Home | Current Version | Previous Version | Text Only | Print | Product List | Glossary On
Versions: 1 2 3 4 5 6 7 8 9 10 11 12 13 14 15 16 17 18 19 20 21 22 23 24 25 26 27 28 29 30 31 32 33 34 35 36 37 38 39 40 41 42 43 44 45 46 47 48 49 50
000
ASUS44 KMAF 041910
RWRMAF
MIDLAND AREA WEATHER ROUNDUP
NATIONAL WEATHER SERVICE MIDLAND TX
200 PM CDT SAT JUL 04 2015

...IN SOUTHWEST TEXAS AND SOUTHEAST NEW MEXICO...

CITY           SKY/WX    TMP DP  RH WIND       PRES   REMARKS
ALPINE         PTSUNNY   75  66  74 SE9       30.13F THUNDER
ANDREWS        PTSUNNY   85  62  46 SE8G17    30.06S
ARTESIA        SUNNY     86  59  39 SE7G16    30.05F
BIG SPRING     MOSUNNY   87  61  41 S10G16    30.05S
CARLSBAD       PTSUNNY   87  62  43 CALM      30.02F
DRYDEN           N/A     84  69  60 E9        29.99F
FORT STOCKTON  MOSUNNY   87  65  47 SE10G21   30.02F
GUAD PASS      SUNNY     80  55  42 E17       30.17F
HOBBS          PTSUNNY   86  57  37 SE10G16   30.07F
MARFA          PTSUNNY  N/A N/A N/A SE8       30.10F
MIDLAND AIRPK  PTSUNNY   88  62  41 E12G17    30.03F
MIDLAND INTL   MOSUNNY   87  64  46 SE12      30.03F
ODESSA         PTSUNNY   87  63  44 MISG      30.05F
PECOS          MOSUNNY   90  62  38 E3        29.98F
PRESIDIO       FAIR      89  65  45 SE3       29.95F
SEMINOLE       MOSUNNY   88  57  35 SE12      30.07F
SNYDER         PTSUNNY   85  66  53 SE8       30.03F
WINK           PTSUNNY   88  64  44 E12G17    30.00F
$$
...OTHER STATIONS IN TEXAS...

CITY           SKY/WX    TMP DP  RH WIND       PRES   REMARKS
ABILENE        PTSUNNY   90  66  45 S13       30.00F
AMARILLO       SUNNY     86  59  39 S10       30.05F
AUSTIN         PTSUNNY   88  72  58 S15G22    29.99F
BROWNSVILLE    PTSUNNY   84  76  76 S18       29.99S
CORPUS CHRISTI PTSUNNY   90  75  61 SE22G30   29.99S HX 100
DALLAS FTW     PTSUNNY   91  71  51 S13       29.96F
DEL RIO        MOSUNNY   88  70  55 SE10      29.94F
EL PASO        PTSUNNY   92  55  28 VRB3      30.02F
HOUSTON INT    PTSUNNY   90  75  61 SW6       29.99F HX 100
LUBBOCK        PTSUNNY   88  61  40 SE13G20   30.05F
SAN ANGELO     MOSUNNY   87  66  49 SE8       30.01F
SAN ANTONIO    PTSUNNY   88  71  57 S13       30.01S
WACO           MOSUNNY   91  71  51 S14       29.99F
WICHITA FALLS  NOT AVBL
$$
...OTHER LOCATIONS IN NEW MEXICO...

CITY           SKY/WX    TMP DP  RH WIND       PRES   REMARKS
ALAMAGORDO     SUNNY     90  54  29 SW7       30.05F
ALBUQUERQUE    MOSUNNY   85  54  34 S6        30.12F
CANNON AFB     PTSUNNY   85  61  44 SE9       30.08F
CLOVIS         MOSUNNY   84  61  45 S13         N/A
HOLLOMAN AFB   MOSUNNY   89  54  29 VRB3      30.02F
ROSWELL        SUNNY     88  59  37 S8G18     30.04F
RUIDOSO        NOT AVBL
SANTA FE       TSTM      74  55  51 W31G40    30.18F
TRUTH OR CONSE MOSUNNY   87  56  34 SE12G18   30.08F
TUCUMCARI      MOSUNNY   90  54  29 S12G21    30.03F
$$



USA.gov is the U.S. government's official web portal to all federal, state and local government web resources and services.